EW6476 Weather Reports


Display with metric or nautical units.
time (UTC)temp
F
wind
direction
speed
MPH
gust
MPH
rain 1hr
in
rain 24hr
in
rain mn
in
humidity
%
barometer
mb
20260506072517 51 0.0 0.0 0.00 0.00 0.00 74 1022.5
20260506071517 51 0.0 0.0 0.00 0.00 0.00 75 1022.4
20260506070519 51 0.0 0.0 0.00 0.01 0.00 75 1022.2
20260506061517 51 0.0 0.0 0.00 0.03 0.01 75 1021.9
20260506060518 51 0.0 0.0 0.00 0.03 0.01 75 1021.8
20260506050517 51 0.0 0.0 0.00 0.14 0.01 76 1021.0
20260506044517 51 0.0 0.0 0.00 0.21 0.01 77 1020.9
20260506043517 51 0.0 0.0 0.00 0.23 0.01 77 1020.8
20260506042539 51 0.0 0.0 0.00 0.23 0.01 77 1020.9
20260506041517 51 0.0 0.0 0.00 0.23 0.01 78 1020.8
20260506040517 51 0.0 0.0 0.00 0.23 0.01 78 1020.5
20260506035537 51 0.0 0.0 0.00 0.24 0.01 78 1020.3
20260506034517 51 0.0 0.0 0.00 0.25 0.01 79 1020.1
20260506033517 51 0.0 0.0 0.00 0.28 0.01 79 1020.1
20260506032517 51 0.0 0.0 0.00 0.35 0.01 80 1020.2
20260506031517 51 0.0 0.0 0.00 0.41 0.01 80 1020.1
20260506030518 51 0.0 0.0 0.00 0.47 0.01 81 1019.9
20260506025517 51 0.0 0.0 0.00 0.50 0.01 82 1019.7
20260506024537 51 0.0 0.0 0.00 0.56 0.01 81 1019.5
20260506023519 51 0.0 0.0 0.00 0.59 0.01 82 1019.4
20260506022517 52 0.0 0.0 0.00 0.62 0.01 83 1019.4
20260506021517 52 0.0 0.0 0.00 0.65 0.01 83 1019.5
20260506020538 52 0.0 0.0 0.00 0.68 0.01 84 1019.3
20260506015517 52 0.0 0.0 0.00 0.71 0.01 83 1019.2
20260506014518 52 0.0 0.0 0.00 0.73 0.01 81 1019.0
20260506013517 52 0.0 0.0 0.00 0.76 0.01 82 1019.3
20260506012517 52 0.0 0.0 0.00 0.80 0.01 82 1019.4
20260506011518 52 0.0 0.0 0.00 0.83 0.01 82 1019.3
20260506010517 52 0.0 0.0 0.00 0.86 0.01 81 1019.2
20260506005518 52 0.0 0.0 0.00 0.88 0.01 81 1019.0
20260506004517 52 0.0 0.0 0.00 0.92 0.01 81 1019.1
20260506003516 51 0.0 0.0 0.00 0.95 0.01 81 1019.0
20260506002537 51 0.0 0.0 0.00 0.98 0.01 82 1018.8
20260506001517 51 0.0 0.0 0.00 1.00 0.01 82 1018.8
20260506000517 51 0.0 0.0 0.00 1.02 0.01 82 1018.8
20260505235517 51 0.0 0.0 0.00 1.04 0.01 83 1018.8
20260505234516 51 0.0 0.0 0.00 1.06 0.01 84 1018.7
20260505233516 51 0.0 0.0 0.00 1.08 0.01 83 1018.7
20260505232517 51 0.0 0.0 0.00 1.09 0.01 83 1018.8
20260505231517 52 0.0 0.0 0.00 1.09 0.01 82 1018.7
20260505230517 51 0.0 0.0 0.00 1.11 0.01 83 1018.8
20260505225517 51 0.0 0.0 0.00 1.13 0.01 82 1018.7
20260505224517 51 0.0 0.0 0.00 1.15 0.01 84 1018.7
20260505223516 51 0.0 0.0 0.00 1.16 0.01 84 1018.8
20260505222525 51 0.0 0.0 0.00 1.18 0.01 85 1018.8
20260505221517 51 0.0 0.0 0.00 1.19 0.01 85 1018.8
20260505220705 51 0.0 0.0 0.00 1.21 0.01 85 1018.8
20260505215517 52 0.0 0.0 0.00 1.22 0.01 86 1018.9
20260505214516 51 0.0 0.0 0.00 1.23 0.01 87 1019.0
20260505213516 51 0.0 0.0 0.00 1.23 0.01 86 1019.0
20260505212517 52 0.0 0.0 0.00 1.24 0.01 86 1019.2
20260505211557 52 0.0 0.0 0.00 1.26 0.01 86 1019.1
20260505210517 51 0.0 0.0 0.00 1.28 0.01 87 1018.9
20260505205537 52 0.0 0.0 0.00 1.28 0.01 87 1019.0
20260505204517 52 0.0 0.0 0.00 1.29 0.01 87 1019.0
20260505203516 53 0.0 0.0 0.00 1.29 0.01 87 1019.0
20260505202518 53 0.0 0.0 0.00 1.29 0.01 87 1018.9
20260505201518 53 0.0 0.0 0.00 1.30 0.01 87 1018.9
20260505200517 53 0.0 0.0 0.00 1.30 0.01 87 1019.1
20260505195516 53 0.0 0.0 0.00 1.31 0.01 87 1019.0
20260505194537 53 0.0 0.0 0.00 1.31 0.01 87 1019.1
20260505193516 53 0.0 0.0 0.00 1.31 0.01 86 1019.1
20260505192517 53 0.0 0.0 0.00 1.32 0.01 87 1019.0
20260505191518 53 0.0 0.0 0.00 1.32 0.01 87 1019.0
20260505190517 53 0.0 0.0 0.00 1.32 0.01 87 1018.9
20260505185516 53 0.0 1.0 0.00 1.32 0.01 87 1018.9
20260505184518 52 0.0 0.0 0.00 1.32 0.01 87 1018.9
20260505183517 52 0.0 0.0 0.00 1.32 0.01 87 1018.9
20260505182516 52 0.0 0.0 0.00 1.32 0.01 87 1018.9
20260505181613 52 0.0 0.0 0.00 1.32 0.01 87 1018.8
20260505180516 52 0.0 0.0 0.00 1.32 0.01 87 1018.8
20260505175517 51 0.0 0.0 0.00 1.32 0.01 87 1018.5
20260505174539 51 0.0 0.0 0.00 1.32 0.01 87 1018.5
20260505173517 51 0.0 0.0 0.00 1.32 0.01 87 1018.4
20260505172516 50 0.0 0.0 0.00 1.32 0.01 86 1018.4
20260505171516 50 0.0 0.0 0.00 1.32 0.01 85 1018.3
20260505170516 50 0.0 0.0 0.00 1.32 0.01 83 1018.3
20260505165516 50 0.0 0.0 0.00 1.32 0.01 85 1018.4
20260505164653 50 0.0 0.0 0.00 1.32 0.01 82 1018.3
20260505163518 50 0.0 1.0 0.00 1.32 0.01 81 1018.3
20260505162519 50 0.0 1.0 0.00 1.32 0.01 78 1018.2
20260505161518 50 0.0 0.0 0.00 1.32 0.01 77 1017.9
20260505160538 49 0.0 1.0 0.00 1.32 0.01 77 1017.9
20260505152518 48 0.0 0.0 0.00 1.32 0.01 77 1017.9
20260505151539 47 0.0 0.0 0.00 1.32 0.01 77 1017.6
20260505150519 47 0.0 0.0 0.00 1.32 0.01 77 1017.5
20260505140518 46 0.0 0.0 0.00 1.32 0.01 77 1017.0
20260505124518 45 0.0 0.0 0.00 1.32 0.01 77 1016.8
20260505123518 45 0.0 0.0 0.00 1.32 0.01 77 1016.6
20260505122518 45 0.0 0.0 0.00 1.32 0.01 77 1016.6
20260505121517 46 0.0 0.0 0.00 1.32 0.01 77 1016.7
20260505120518 46 0.0 0.0 0.00 1.32 0.01 77 1016.8
20260505115517 45 0.0 0.0 0.00 1.32 0.01 77 1016.6
20260505114537 46 0.0 0.0 0.00 1.32 0.01 77 1016.7
20260505113518 46 0.0 0.0 0.00 1.32 0.01 77 1016.8
20260505112517 46 0.0 0.0 0.00 1.32 0.01 77 1016.9
20260505111517 46 0.0 0.0 0.00 1.32 0.01 77 1016.9
20260505110518 46 0.0 0.0 0.00 1.32 0.01 77 1016.9
20260505101520 46 0.0 0.0 0.00 1.32 0.01 77 1017.0
20260505100517 46 0.0 0.0 0.00 1.32 0.01 77 1017.1
20260505095517 46 0.0 0.0 0.00 1.32 0.01 77 1017.3
20260505094518 46 0.0 0.0 0.00 1.32 0.01 77 1017.1
20260505093517 46 0.0 0.0 0.00 1.32 0.01 77 1017.5
20260505092537 46 0.0 0.0 0.00 1.32 0.01 77 1017.4
20260505091517 46 0.0 0.0 0.00 1.32 0.01 77 1017.7
20260505090517 46 0.0 0.0 0.00 1.32 0.01 77 1017.8
20260505085537 46 0.0 0.0 0.00 1.32 0.01 77 1017.7
20260505084517 46 0.0 0.0 0.00 1.32 0.01 77 1017.9
20260505083519 46 0.0 0.0 0.00 1.32 0.01 77 1018.0
20260505082517 46 0.0 0.0 0.00 1.32 0.01 77 1017.9
20260505081517 46 0.0 0.0 0.00 1.32 0.01 77 1018.1
20260505080517 46 0.0 0.0 0.01 1.32 0.01 77 1018.0